Overview Statistics Trail Chart Weather Telemetry Raw packets
 

This is the latest recevied weather packets stored in our database for station/object KLEMETTI. If no packets are shown the sender has not sent any weather packets the latest 10 day(s).

<< 9 10 11 12 13 14 >>
Time Temp. Humidity Pressure Rain* Wind** Luminosity Snow
1788275076 14.44° C 75% 1006 hPa 0 mm - - -
1788273875 14.44° C 77% 1006 hPa 0 mm - - -
1788272675 15° C 75% 1006.1 hPa 0 mm - - -
1788271475 15° C 77% 1006 hPa 0 mm - - -
1788270275 15° C 78% 1006.1 hPa 0 mm - - -
1788269076 15° C 78% 1005.9 hPa 0 mm - - -
1788267874 14.44° C 78% 1006 hPa 0 mm - - -
1788266675 15° C 78% 1005.9 hPa 0 mm - - -
1788265476 15° C 76% 1005.8 hPa 0 mm - - -
1788264275 15.56° C 74% 1005.6 hPa 0 mm - - -
1788260674 16.67° C 70% 1005.1 hPa 0 mm - - -
1788258275 16.67° C 74% 1005 hPa 0 mm - - -
1788257074 16.67° C 73% 1004.8 hPa 0 mm - - -
1788254675 15.56° C 82% 1004.6 hPa 0 mm - - -
1788253264 16.11° C 80% 1004.5 hPa 0 mm - - -
1788251074 16.11° C 84% 1004.4 hPa 0 mm - - -
1788248673 15.56° C 90% 1004.2 hPa 0 mm - - -
1788247474 15.56° C 92% 1004 hPa 0 mm - - -
1788246273 15.56° C 93% 1003.9 hPa 0 mm - - -
1788245073 15.56° C 98% 1003.6 hPa 0 mm - - -
1788243873 15.56° C 99% 1003.5 hPa 0 mm - - -
1788242673 15.56° C 98% 1003.4 hPa 0 mm - - -
1788240274 15.56° C 96% 1003.6 hPa 0 mm - - -
1788239073 15° C 96% 1003.6 hPa 0 mm - - -
1788237669 15° C 96% 1003.7 hPa 0 mm - - -

* Rain latest hour (hover to see other rain measurements)
** Current wind speed in m/s (hover to see current wind gust speed)